Zurück zum Katalog

SWARM A

AktivWissenschaftPO
NORAD 39452·PAYLOAD·🇪🇺 EU

Gestartet Nov 22, 2013 von Plesetsk Cosmodrome

Loading…

Nächste Überflüge (nächste 24 Stunden)

TLE

AktuellSource: CelesTrak SupGP

Epoche: Sep 14, 2026, 00:00 UTC

1 39452C 13067B   26257.00000000  .00009712  00000+0  16923-3 0  2571
2 39452  87.3358  23.2416 0002407 111.6300 154.7793 15.50749622    10

Verfolge SWARM A in Echtzeit mit AllMySat

Download on the App Store